Weather History for Palm Springs, CA

Change the Weather History Date:

Friday, September 5, 2014

  Actual Average Record
Temperature  
Mean Temperature 91 °F 90 °F  
Max Temperature 101 °F 104 °F 116 °F (1955)
Min Temperature 81 °F 76 °F 51 °F (1936)
Degree Days  
Heating Degree Days 0 0  
Month to date heating degree days 0 0  
Since 1 July heating degree days 0 0  
Cooling Degree Days 26 25  
Month to date cooling degree days 133 125  
Year to date cooling degree days 3730 3209  
Growing Degree Days 40 (Base 50)    
Moisture  
Dew Point 63 °F    
Average Humidity 41    
Maximum Humidity 49    
Minimum Humidity 33    
Precipitation  
Precipitation 0.00 in 0.01 in 0.71 in (1939)
Month to date precipitation 0.00 0.09  
Year to date precipitation 1.90 3.62  
Since 1 July precipitation 1.15 0.68  
Snow  
Snow 0.00 in - - ()
Month to date snowfall 0.0  
Year to date snowfall 0.0  
Since 1 July snowfall 0.0  
Snow Depth 0.00 in    
Sea Level Pressure  
Sea Level Pressure 29.81 in    
Wind  
Wind Speed 7 mph (East)    
Max Wind Speed 18 mph    
Max Gust Speed 23 mph    
Visibility 10 miles    
Events      
T = Trace of Precipitation, MM = Missing Value Source: NWS Daily Summary

Daily Weather History Graph

Daily Weather History Graph

Search for Another Location

Airport:

Trip Planner

Search our weather history database for the weather conditions in past years. The results will help you decide how hot, cold, wet, or windy it might be!

Date:

Astronomy

Sep. 05, 2014 Rise Set
Actual Time 6:22 AM PDT 7:06 PM PDT
Civil Twilight 5:57 AM PDT 7:31 PM PDT
Nautical Twilight 5:27 AM PDT 8:01 PM PDT
Astronomical Twilight 4:56 AM PDT 8:31 PM PDT
Moon 4:32 PM PDT (9/5) 2:29 AM PDT (9/5)
Length of Visible Light 13h 34m
Length of Day
12h 43m
Waxing Gibbous, 85% of the Moon is Illuminated
Sep 5
Waxing Gibbous
Sep 8
Full
Sep 15
Last Quarter
Sep 23
New
Oct 1
First Quarter

Hourly Weather History & Observations

Time (PDT) Temp. Heat Index Dew Point Humidity Pressure Visibility Wind Dir Wind Speed Gust Speed Precip Events Conditions
12:53 AM 82.9 °F 82.4 °F 57.0 °F 41% 29.76 in 10.0 mi SE 9.2 mph - N/A   Clear
1:53 AM 84.0 °F 83.3 °F 57.0 °F 40% 29.77 in 10.0 mi Calm Calm - N/A   Clear
2:53 AM 82.9 °F 82.1 °F 55.9 °F 39% 29.79 in 10.0 mi North 8.1 mph - N/A   Clear
3:49 AM 82.4 °F 81.7 °F 55.4 °F 39% 29.81 in 10.0 mi Calm Calm - N/A   Scattered Clouds
3:53 AM 81.0 °F 80.8 °F 55.9 °F 42% 29.79 in 10.0 mi Calm Calm - N/A   Partly Cloudy
4:53 AM 82.9 °F 82.1 °F 55.9 °F 39% 29.79 in 10.0 mi NW 3.5 mph - N/A   Partly Cloudy
5:53 AM 84.0 °F 82.6 °F 54.0 °F 35% 29.81 in 10.0 mi WNW 4.6 mph - N/A   Mostly Cloudy
6:53 AM 82.9 °F 82.0 °F 55.0 °F 38% 29.83 in 10.0 mi WNW 4.6 mph - N/A   Partly Cloudy
7:53 AM 84.0 °F 83.0 °F 55.9 °F 38% 29.85 in 10.0 mi WNW 3.5 mph - N/A   Scattered Clouds
8:53 AM 88.0 °F 87.6 °F 60.1 °F 39% 29.86 in 10.0 mi East 4.6 mph - N/A   Partly Cloudy
9:53 AM 90.0 °F 92.4 °F 66.0 °F 45% 29.87 in 10.0 mi East 4.6 mph - N/A   Clear
10:53 AM 91.9 °F 97.4 °F 70.0 °F 48% 29.87 in 10.0 mi Variable 4.6 mph - N/A   Clear
11:53 AM 96.1 °F 102.9 °F 70.0 °F 43% 29.85 in 10.0 mi East 10.4 mph - N/A   Partly Cloudy
12:53 PM 96.1 °F 103.5 °F 71.1 °F 44% 29.84 in 10.0 mi Variable 5.8 mph - N/A   Partly Cloudy
1:53 PM 98.1 °F 104.4 °F 69.1 °F 39% 29.82 in 10.0 mi East 15.0 mph 19.6 mph N/A   Partly Cloudy
3:53 PM 100.9 °F 105.3 °F 66.0 °F 32% 29.77 in 10.0 mi ESE 15.0 mph 19.6 mph N/A   Clear
4:53 PM 100.0 °F 104.2 °F 66.0 °F 33% 29.76 in 10.0 mi ESE 11.5 mph - N/A   Clear
5:53 PM 99.0 °F 101.7 °F 64.0 °F 32% 29.76 in 10.0 mi SE 9.2 mph - N/A   Clear
6:53 PM 98.1 °F 102.4 °F 66.9 °F 36% 29.76 in 10.0 mi ESE 11.5 mph - N/A   Clear
7:53 PM 96.1 °F 99.9 °F 66.9 °F 38% 29.78 in 10.0 mi East 8.1 mph - N/A   Clear
8:53 PM 95.0 °F 99.5 °F 68.0 °F 41% 29.81 in 10.0 mi Calm Calm - N/A   Clear
9:53 PM 95.0 °F 99.0 °F 66.9 °F 40% 29.83 in 10.0 mi Calm Calm - N/A   Clear
10:53 PM 93.0 °F 97.4 °F 68.0 °F 44% 29.84 in 10.0 mi East 5.8 mph - N/A   Clear
11:53 PM 91.0 °F 97.6 °F 71.1 °F 52% 29.85 in 10.0 mi ESE 3.5 mph - N/A   Clear